When you browse on this site, cookies collect data to enhance your experience and personalize the content and advertising you see.
Visit our Privacy Policy to learn more. By continuing to use the site, you agree to this use of cookies and data.
  • In Hungary
  • List of Countries
  • For 7 days
  • Water Temperature
  • Weather Map
  • News
  • Weather Widgets
  • user-avatar
    Login

    Hourly Weather Santo Domingo

    Today, 9 December, Monday

    Time Temperature Precipitation Wind Pressure Humidity
    00:00 +13°C° 0 mm 1 mps 602 mmHg 97%
    01:00 +12°C° 0 mm 1 mps 601 mmHg 97%
    02:00 +12°C° 0 mm 1 mps 601 mmHg 97%
    03:00 +12°C° 0 mm 1 mps 601 mmHg 97%
    04:00 +11°C° 0 mm 1 mps 600 mmHg 97%
    05:00 +12°C° 0 mm 1 mps 601 mmHg 96%
    06:00 +12°C° 0 mm 1 mps 601 mmHg 95%
    07:00 +13°C° 0 mm 1 mps 602 mmHg 95%
    08:00 +16°C° 0 mm 1 mps 603 mmHg 84%
    09:00 +19°C° 0 mm 1 mps 604 mmHg 72%
    10:00 +22°C° 0 mm 1 mps 605 mmHg 61%
    11:00 +22°C° 0 mm 1 mps 605 mmHg 61%
    12:00 +23°C° 0 mm 2 mps 604 mmHg 62%
    13:00 +23°C° 0 mm 2 mps 603 mmHg 62%
    14:00 +21°C° 0.2 mm 2 mps 603 mmHg 66%
    15:00 +21°C° 0.2 mm 2 mps 602 mmHg 71%
    16:00 +20°C° 0.2 mm 2 mps 601 mmHg 75%
    17:00 +20°C° 0.2 mm 1 mps 601 mmHg 83%
    18:00 +18°C° 0.2 mm 1 mps 601 mmHg 91%
    19:00 +15°C° 0.2 mm 0 mps 601 mmHg 99%
    20:00 +15°C° 0.1 mm 0 mps 601 mmHg 99%
    21:00 +14°C° 0.1 mm 0 mps 602 mmHg 99%
    22:00 +14°C° 0.1 mm 0 mps 602 mmHg 99%
    23:00 +14°C° 0.2 mm 0 mps 602 mmHg 98%

    Tomorrow, 10 December, Tuesday

    Time Temperature Precipitation Wind Pressure Humidity
    00:00 +14°C° 0.2 mm 0 mps 602 mmHg 98%
    01:00 +14°C° 0.2 mm 0 mps 601 mmHg 98%
    02:00 +13°C° 0 mm 0 mps 601 mmHg 98%
    03:00 +13°C° 0 mm 0 mps 601 mmHg 98%
    04:00 +13°C° 0 mm 1 mps 600 mmHg 97%
    05:00 +14°C° 0 mm 1 mps 601 mmHg 97%
    06:00 +14°C° 0 mm 1 mps 602 mmHg 96%
    07:00 +14°C° 0 mm 1 mps 602 mmHg 96%
    08:00 +16°C° 0.2 mm 1 mps 603 mmHg 90%
    09:00 +19°C° 0.2 mm 1 mps 604 mmHg 83%
    10:00 +21°C° 0.2 mm 1 mps 605 mmHg 77%
    11:00 +21°C° 1.2 mm 1 mps 604 mmHg 80%
    12:00 +21°C° 1.2 mm 1 mps 603 mmHg 84%
    13:00 +21°C° 1.2 mm 1 mps 602 mmHg 88%
    14:00 +20°C° 1.2 mm 1 mps 602 mmHg 89%
    15:00 +20°C° 1.2 mm 1 mps 601 mmHg 91%
    16:00 +19°C° 1.2 mm 1 mps 601 mmHg 93%
    17:00 +16°C° 0.7 mm 0 mps 601 mmHg 95%
    18:00 +15°C° 0.7 mm 0 mps 601 mmHg 97%
    19:00 +14°C° 0.7 mm 0 mps 601 mmHg 98%
    20:00 +14°C° 0.6 mm 0 mps 601 mmHg 98%
    21:00 +14°C° 0.6 mm 0 mps 602 mmHg 98%
    22:00 +14°C° 0.6 mm 1 mps 602 mmHg 98%
    23:00 +14°C° 0.2 mm 1 mps 602 mmHg 98%

    Day after tomorrow, 11 December, Wednesday

    Time Temperature Precipitation Wind Pressure Humidity
    00:00 +14°C° 0.2 mm 1 mps 602 mmHg 98%
    01:00 +14°C° 0.2 mm 1 mps 601 mmHg 98%
    02:00 +13°C° 0 mm 1 mps 601 mmHg 97%
    03:00 +13°C° 0 mm 1 mps 601 mmHg 97%
    04:00 +13°C° 0 mm 1 mps 601 mmHg 97%
    05:00 +13°C° 0 mm 1 mps 601 mmHg 97%
    06:00 +13°C° 0 mm 1 mps 602 mmHg 96%
    07:00 +14°C° 0 mm 1 mps 602 mmHg 96%
    08:00 +16°C° 0.2 mm 1 mps 603 mmHg 89%
    09:00 +19°C° 0.2 mm 1 mps 604 mmHg 81%
    10:00 +21°C° 0.2 mm 1 mps 605 mmHg 74%
    11:00 +21°C° 1.5 mm 1 mps 604 mmHg 80%
    12:00 +20°C° 1.5 mm 1 mps 604 mmHg 87%
    13:00 +20°C° 1.5 mm 1 mps 603 mmHg 93%
    14:00 +19°C° 1.6 mm 1 mps 602 mmHg 95%
    15:00 +17°C° 1.6 mm 0 mps 602 mmHg 96%
    16:00 +16°C° 1.6 mm 0 mps 601 mmHg 97%
    17:00 +16°C° 1.5 mm 0 mps 601 mmHg 97%
    18:00 +16°C° 1.5 mm 1 mps 601 mmHg 98%
    19:00 +15°C° 1.5 mm 1 mps 601 mmHg 98%
    20:00 +15°C° 0.7 mm 1 mps 602 mmHg 98%
    21:00 +14°C° 0.7 mm 1 mps 602 mmHg 98%
    22:00 +14°C° 0.7 mm 1 mps 602 mmHg 98%
    23:00 +14°C° 0 mm 1 mps 602 mmHg 98%

    12 December, Thursday

    Time Temperature Precipitation Wind Pressure Humidity
    00:00 +13°C° 0 mm 1 mps 601 mmHg 98%
    01:00 +13°C° 0 mm 1 mps 601 mmHg 98%
    02:00 +13°C° 0 mm 1 mps 601 mmHg 97%
    03:00 +12°C° 0 mm 1 mps 601 mmHg 97%
    04:00 +12°C° 0 mm 1 mps 600 mmHg 97%
    05:00 +13°C° 0 mm 1 mps 601 mmHg 97%
    06:00 +13°C° 0 mm 1 mps 601 mmHg 96%
    07:00 +13°C° 0 mm 1 mps 602 mmHg 96%
    08:00 +16°C° 0 mm 1 mps 603 mmHg 84%
    09:00 +19°C° 0 mm 1 mps 604 mmHg 72%
    10:00 +22°C° 0 mm 1 mps 605 mmHg 60%
    11:00 +22°C° 0 mm 1 mps 605 mmHg 57%
    12:00 +23°C° 0 mm 1 mps 604 mmHg 55%
    13:00 +24°C° 0 mm 2 mps 604 mmHg 52%
    14:00 +23°C° 0.2 mm 2 mps 603 mmHg 61%
    15:00 +20°C° 0.2 mm 2 mps 602 mmHg 69%
    16:00 +20°C° 0.2 mm 1 mps 602 mmHg 78%
    17:00 +19°C° 0.4 mm 1 mps 601 mmHg 85%
    18:00 +15°C° 0.4 mm 0 mps 601 mmHg 92%
    19:00 +14°C° 0.4 mm 0 mps 601 mmHg 99%
    20:00 +13°C° 0.3 mm 0 mps 601 mmHg 98%
    21:00 +13°C° 0.3 mm 0 mps 602 mmHg 98%
    22:00 +14°C° 0.3 mm 1 mps 602 mmHg 98%
    23:00 +13°C° 0.2 mm 1 mps 602 mmHg 98%

    13 December, Friday

    Time Temperature Precipitation Wind Pressure Humidity
    00:00 +13°C° 0.2 mm 1 mps 601 mmHg 98%
    01:00 +13°C° 0.2 mm 1 mps 601 mmHg 97%
    02:00 +13°C° 0 mm 1 mps 601 mmHg 97%
    03:00 +13°C° 0 mm 1 mps 601 mmHg 97%
    04:00 +13°C° 0 mm 1 mps 600 mmHg 97%
    05:00 +12°C° 0 mm 0 mps 601 mmHg 97%
    06:00 +12°C° 0 mm 0 mps 601 mmHg 97%
    07:00 +13°C° 0 mm 0 mps 602 mmHg 96%
    08:00 +14°C° 0.2 mm 0 mps 603 mmHg 91%
    09:00 +18°C° 0.2 mm 1 mps 603 mmHg 85%
    10:00 +20°C° 0.2 mm 1 mps 604 mmHg 79%
    11:00 +20°C° 0.6 mm 1 mps 604 mmHg 80%
    12:00 +20°C° 0.6 mm 1 mps 603 mmHg 80%
    13:00 +21°C° 0.6 mm 1 mps 602 mmHg 80%
    14:00 +20°C° 0.7 mm 1 mps 602 mmHg 84%
    15:00 +20°C° 0.7 mm 1 mps 601 mmHg 88%
    16:00 +19°C° 0.7 mm 1 mps 601 mmHg 91%
    17:00 +16°C° 0.4 mm 0 mps 601 mmHg 94%
    18:00 +15°C° 0.4 mm 0 mps 601 mmHg 96%
    19:00 +13°C° 0.4 mm 0 mps 600 mmHg 98%
    20:00 +13°C° 0.4 mm 0 mps 601 mmHg 98%
    21:00 +13°C° 0.4 mm 0 mps 601 mmHg 98%
    22:00 +13°C° 0.4 mm 0 mps 602 mmHg 98%
    23:00 +14°C° 0.4 mm 1 mps 601 mmHg 98%

    14 December, Saturday

    Time Temperature Precipitation Wind Pressure Humidity
    00:00 +13°C° 0.4 mm 1 mps 601 mmHg 98%
    01:00 +13°C° 0.4 mm 1 mps 601 mmHg 98%
    02:00 +13°C° 0.2 mm 1 mps 601 mmHg 98%
    03:00 +12°C° 0.2 mm 0 mps 600 mmHg 98%
    04:00 +12°C° 0.2 mm 0 mps 600 mmHg 97%
    05:00 +12°C° 0.1 mm 0 mps 601 mmHg 97%
    06:00 +12°C° 0.1 mm 0 mps 601 mmHg 97%
    07:00 +13°C° 0.1 mm 0 mps 602 mmHg 97%
    08:00 +15°C° 0 mm 0 mps 603 mmHg 86%
    09:00 +19°C° 0 mm 1 mps 604 mmHg 76%
    10:00 +21°C° 0 mm 1 mps 605 mmHg 65%
    11:00 +21°C° 0 mm 1 mps 604 mmHg 64%
    12:00 +22°C° 0 mm 1 mps 604 mmHg 62%
    13:00 +23°C° 0 mm 2 mps 603 mmHg 61%
    14:00 +21°C° 0.6 mm 1 mps 603 mmHg 71%
    15:00 +20°C° 0.6 mm 1 mps 602 mmHg 81%
    16:00 +19°C° 0.6 mm 1 mps 601 mmHg 91%
    17:00 +18°C° 0.5 mm 1 mps 601 mmHg 94%
    18:00 +15°C° 0.5 mm 0 mps 601 mmHg 96%
    19:00 +14°C° 0.5 mm 0 mps 601 mmHg 99%
    20:00 +13°C° 0.4 mm 0 mps 602 mmHg 99%
    21:00 +13°C° 0.4 mm 0 mps 602 mmHg 98%
    22:00 +14°C° 0.4 mm 1 mps 602 mmHg 98%
    23:00 +14°C° 0.2 mm 1 mps 602 mmHg 98%
    Show more